Flight Information

DEPARTURE
FARMINGTON, NM
Elevation:
5506
Runways:
7/25 - 6704x100 - ASPH-G
5/23 - 6501x150 - ASPH-E
ATIS:
127.15
Ground:
121.7
Tower:
FARMINGTON TOWER 118.9
DESTINATION
,
Elevation:
TPA:
1000 (est.)


6270.9 NM79° True-13° Var66° HDG

Flight Plan:
(click to file on line)

1. Type
2. Aircraft Identification
3. Aircraft Type / Special Equipment
4. True Airspeed
kts
5. Departure Airport
(ICAO code)
6. Arriving Airport
(ICAO code)
7. Cruising Altitude
ft
8. Alternate Airport
(ICAO code)
9. Route of Flight
10. Remarks


00:00:00 Departure ATIS: Destination ATIS:

Clearance Limit:
Route:
Altitude: Expect in minutes
Frequency:
Transponder: (7500 Hijack / 7600 Lost Comms / 7700 Emergency)


KFMN 091353Z 11007KT 10SM CLR M04/M08 A3018 RMK AO2 SLP250 T10441083
Time: 2022-12-09T13:53:00Z
1670647628
Winds: 110 @ 7 kts
Visibility: 10.0 sm
Clouds (AGL): CLR
Temperature: -4.4 C
Dew Point: -8.3 C
Pressure: 30.180119 in Hgbr


Notes:

Data extracted from FAA Digital Chart Supplement. Effective: 0901Z Thursday, 27 JAN 2022 to 0900z Thursday, 24 MAR 2022
Current ATIS data is provided courtisy of PilotEdge.